Weather History for EHRD - November, 2013

Change the Weather History Date:

Wednesday, November 20, 2013

  Actual Average Record
Temperature  
Mean Temperature 36 °F -  
Max Temperature 42 °F 44 °F 54 °F (2012)
Min Temperature 30 °F 36 °F 23 °F (1998)
Degree Days  
Heating Degree Days 29    
Moisture  
Dew Point 35 °F    
Average Humidity 88    
Maximum Humidity 100    
Minimum Humidity 63    
Precipitation  
Precipitation 0.12 in - - ()
Sea Level Pressure  
Sea Level Pressure 29.62 in    
Wind  
Wind Speed 9 mph ()    
Max Wind Speed 21 mph    
Max Gust Speed 32 mph    
Visibility 5.8 miles    
Events Fog , Rain    
Averages and records for this station are not official NWS values.
T = Trace of Precipitation, MM = Missing Value Source: Averaged Metar Reports

Daily Weather History Graph

Daily Weather History Graph

Search for Another Location

Airport or City:

Trip Planner

Search our weather history database for the weather conditions in past years. The results will help you decide how hot, cold, wet, or windy it might be!

Date:

Astronomy

Nov. 20, 2013 Rise Set
Actual Time 8:10 AM CET 4:44 PM CET
Civil Twilight 7:32 AM CET 5:22 PM CET
Nautical Twilight 6:50 AM CET 6:04 PM CET
Astronomical Twilight 6:10 AM CET 6:44 PM CET
Moon 7:12 PM CET (11/20) 10:25 AM CET (11/20)
Length of Visible Light 9h 50m
Length of Day
8h 34m
Waning Gibbous, 93% of the Moon is Illuminated
Nov 20
Waning Gibbous
Nov 25
Last Quarter
Dec 3
New
Dec 9
First Quarter
Dec 17
Full

Hourly Weather History & Observations

Time (CET) Temp. Windchill Dew Point Humidity Pressure Visibility Wind Dir Wind Speed Gust Speed Precip Events Conditions
12:25 AM 39.2 °F 35.9 °F 35.6 °F 87% 29.89 in 6.2 mi West 4.6 mph - N/A   Mostly Cloudy
12:55 AM 41.0 °F 35.2 °F 37.4 °F 87% 29.89 in 4.3 mi North 9.2 mph - N/A Rain Rain Showers
1:00 AM 40 °F - 38 °F 88% 29.90 in 2 mi NE 11.2 mph - - Rain Rain Showers
1:25 AM 41.0 °F 38.0 °F 35.6 °F 81% 29.89 in - East 4.6 mph - N/A   Mostly Cloudy
1:55 AM 37.4 °F - 35.6 °F 93% 29.86 in 6.2 mi SW 2.3 mph - N/A   Unknown
2:25 AM 35.6 °F 32.8 °F 33.8 °F 93% 29.86 in 6.2 mi SW 3.5 mph - N/A   Unknown
2:55 AM 33.8 °F - 33.8 °F 100% 29.86 in 6.2 mi Variable 1.2 mph - N/A   Scattered Clouds
3:25 AM 33.8 °F 30.8 °F 33.8 °F 100% 29.86 in 1.1 mi SW 3.5 mph - N/A   Partly Cloudy
3:55 AM 35.6 °F - 35.6 °F 100% 29.86 in 5.0 mi SSW 2.3 mph - N/A   Scattered Clouds
4:00 AM 34 °F - 34 °F 100% 29.86 in 6 mi SSW 2.2 mph - - Fog Fog
4:25 AM 33.8 °F - 33.8 °F 100% 29.86 in 6.2 mi Variable 2.3 mph - N/A   Scattered Clouds
4:55 AM 32.0 °F 28.7 °F 32.0 °F 100% 29.83 in 6.2 mi SW 3.5 mph - N/A   Partly Cloudy
5:25 AM 32.0 °F 28.7 °F 32.0 °F 100% 29.83 in - South 3.5 mph - N/A   Partly Cloudy
5:55 AM 32.0 °F 26.4 °F 32.0 °F 100% 29.83 in 6.2 mi SW 5.8 mph - N/A   Partly Cloudy
6:25 AM 35.6 °F 29.9 °F 33.8 °F 93% 29.83 in 6.2 mi SW 6.9 mph - N/A   Overcast
6:55 AM 35.6 °F 31.7 °F 33.8 °F 93% 29.80 in 6.2 mi SW 4.6 mph - N/A   Unknown
7:00 AM 35 °F - 33 °F 91% 29.81 in 22 mi SW 4.5 mph - -   Partly Cloudy
7:25 AM 33.8 °F 28.6 °F 32.0 °F 93% 29.80 in 6.2 mi SW 5.8 mph - N/A   Partly Cloudy
7:55 AM 35.6 °F 32.8 °F 35.6 °F 100% 29.80 in 6.2 mi WNW 3.5 mph - N/A   Partly Cloudy
8:25 AM 35.6 °F 32.8 °F 33.8 °F 93% 29.77 in 6.2 mi SSE 3.5 mph - N/A   Unknown
8:55 AM 33.8 °F 27.7 °F 32.0 °F 93% 29.77 in 6.2 mi SSW 6.9 mph - N/A   Unknown
9:25 AM 37.4 °F 32.1 °F 33.8 °F 87% 29.74 in 6.2 mi South 6.9 mph - N/A   Unknown
9:55 AM 41.0 °F 35.8 °F 35.6 °F 81% 29.71 in 6.2 mi SW 8.1 mph - N/A   Unknown
10:00 AM 42 °F - 35 °F 70% 29.73 in 16 mi SW 11.2 mph - -   Scattered Clouds
10:25 AM 42.8 °F 35.8 °F 35.6 °F 76% 29.71 in 6.2 mi SW 13.8 mph - N/A   Unknown
10:55 AM 42.8 °F 35.4 °F 33.8 °F 70% 29.68 in 6.2 mi SW 15.0 mph - N/A   Unknown
11:25 AM 41.0 °F 32.2 °F 33.8 °F 76% 29.65 in 6.2 mi SSW 18.4 mph - N/A   Partly Cloudy
11:55 AM 41.0 °F 32.8 °F 33.8 °F 76% 29.65 in 6.2 mi SSW 16.1 mph - N/A   Scattered Clouds
12:25 PM 41.0 °F 32.5 °F 32.0 °F 70% 29.62 in 6.2 mi South 17.3 mph - N/A   Partly Cloudy
12:55 PM 41.0 °F 33.5 °F 32.0 °F 70% 29.56 in 6.2 mi South 13.8 mph - N/A   Unknown
1:00 PM 40 °F - 32 °F 63% 29.58 in 22 mi South 15.7 mph - -   Partly Cloudy
1:25 PM 41.0 °F 32.2 °F 32.0 °F 70% 29.56 in 6.2 mi South 18.4 mph - N/A   Unknown
1:55 PM 41.0 °F 32.8 °F 32.0 °F 70% 29.53 in 6.2 mi South 16.1 mph - N/A   Unknown
2:25 PM 41.0 °F 32.2 °F 33.8 °F 76% 29.50 in 6.2 mi South 18.4 mph - N/A   Mostly Cloudy
2:55 PM 39.2 °F 29.6 °F 35.6 °F 87% 29.50 in 6.2 mi South 19.6 mph 32.2 mph N/A Rain Light Rain
3:25 PM 39.2 °F 29.6 °F 35.6 °F 87% 29.47 in 6.2 mi South 19.6 mph - N/A Rain Light Rain
3:55 PM 39.2 °F 30.2 °F 35.6 °F 87% 29.44 in 6.2 mi South 17.3 mph 29.9 mph N/A Rain Light Rain
4:00 PM 39 °F - 36 °F 86% 29.46 in 8 mi South 20.1 mph - - Rain Light Rain
4:25 PM 39.2 °F 29.3 °F 35.6 °F 87% 29.44 in 6.2 mi South 20.7 mph - N/A Rain Light Rain
4:55 PM 39.2 °F 30.2 °F 35.6 °F 87% 29.42 in 6.2 mi South 17.3 mph - N/A Rain Light Rain
5:25 PM 39.2 °F 30.2 °F 35.6 °F 87% 29.42 in 5.0 mi South 17.3 mph 28.8 mph N/A Rain Light Rain
5:55 PM 37.4 °F 27.8 °F 35.6 °F 93% 29.39 in 4.3 mi South 17.3 mph - N/A Rain Light Rain
6:25 PM 37.4 °F 27.5 °F 35.6 °F 93% 29.39 in 4.3 mi South 18.4 mph - N/A Rain Light Rain
6:55 PM 37.4 °F 27.8 °F 35.6 °F 93% 29.39 in 3.1 mi South 17.3 mph - N/A Rain Light Rain
7:00 PM 38 °F - 36 °F 89% 29.40 in 4 mi South 15.7 mph - - Rain Rain
7:25 PM 37.4 °F 27.8 °F 35.6 °F 93% 29.39 in 4.3 mi South 17.3 mph - N/A Rain Light Rain
7:55 PM 37.4 °F 27.8 °F 35.6 °F 93% 29.39 in - South 17.3 mph - N/A Rain Light Rain
8:25 PM 35.6 °F 25.9 °F 35.6 °F 100% 29.36 in 5.0 mi SSE 16.1 mph - N/A Rain Light Rain
8:55 PM 37.4 °F 28.5 °F 35.6 °F 93% 29.36 in 3.1 mi SSE 15.0 mph - N/A Rain Light Rain
9:25 PM 35.6 °F 26.2 °F 35.6 °F 100% 29.36 in - SSE 15.0 mph - N/A Rain Light Rain
9:55 PM 37.4 °F 28.5 °F 35.6 °F 93% 29.36 in 5.6 mi SSE 15.0 mph - N/A   Light Drizzle
10:25 PM 37.4 °F 28.9 °F 35.6 °F 93% 29.36 in 6.2 mi SSE 13.8 mph - N/A Rain Light Rain
10:55 PM 35.6 °F 26.6 °F 33.8 °F 93% 29.36 in 4.3 mi SSE 13.8 mph - N/A   Drizzle
11:25 PM 35.6 °F 27.1 °F 35.6 °F 100% 29.36 in 6.2 mi SE 12.7 mph - N/A   Mostly Cloudy
11:55 PM 37.4 °F 30.8 °F 35.6 °F 93% 29.36 in 6.2 mi SE 9.2 mph - N/A Rain Drizzle